KJ4AJP Weather Reports


time (UTC)temp
C
wind
direction
speed
KPH
gust
KPH
rain 1hr
cm
rain 24hr
cm
rain mn
cm
humidity
%
barometer
mb
20260905175151 37 27 3.2 3.2 0.00 0.00 0.00 42 1013.3
20260905174647 37 45 1.6 3.2 0.00 0.00 0.00 41 1013.4
20260905174142 37 77 1.6 1.6 0.00 0.00 0.00 41 1013.4
20260905173638 37 70 0.0 1.6 0.00 0.00 0.00 45 1013.3
20260905173134 37 319 3.2 3.2 0.00 0.00 0.00 44 1013.3
20260905172632 37 281 9.7 11.3 0.00 0.00 0.00 42 1013.5
20260905172127 37 51 0.0 0.0 0.00 0.00 0.00 46 1013.5
20260905171624 37 247 4.8 6.4 0.00 0.00 0.00 44 1013.5
20260905171119 37 74 1.6 1.6 0.00 0.00 0.00 45 1013.8
20260905170616 37 44 1.6 1.6 0.00 0.00 0.00 44 1013.7
20260905170112 37 51 0.0 0.0 0.00 0.00 0.00 47 1013.8
20260905165611 37 20 1.6 1.6 0.00 0.00 0.00 45 1013.8
20260905165107 37 69 1.6 1.6 0.00 0.00 0.00 49 1013.8
20260905164602 37 66 1.6 1.6 0.00 0.00 0.00 47 1013.9
20260905164101 37 48 0.0 1.6 0.00 0.00 0.00 46 1014.2
20260905163558 37 68 0.0 0.0 0.00 0.00 0.00 49 1014.1
20260905163054 36 61 0.0 0.0 0.00 0.00 0.00 47 1014.1
20260905162550 36 351 3.2 4.8 0.00 0.00 0.00 47 1014.1
20260905162049 36 57 0.0 1.6 0.00 0.00 0.00 49 1014.2
20260905161549 36 51 0.0 0.0 0.00 0.00 0.00 50 1014.2
20260905161047 36 54 0.0 0.0 0.00 0.00 0.00 51 1014.2
20260905160545 36 70 0.0 0.0 0.00 0.00 0.00 52 1014.4
20260905160045 36 77 0.0 1.6 0.00 0.00 0.00 52 1014.3
20260905155545 36 87 1.6 1.6 0.00 0.00 0.00 48 1014.4
20260905155044 36 82 0.0 1.6 0.00 0.00 0.00 51 1014.3
20260905154539 36 48 1.6 1.6 0.00 0.00 0.00 54 1014.4
20260905154035 35 62 0.0 0.0 0.00 0.00 0.00 54 1014.3
20260905153530 35 60 0.0 0.0 0.00 0.00 0.00 54 1014.4
20260905153030 36 48 0.0 1.6 0.00 0.00 0.00 53 1014.4
20260905152525 36 91 0.0 1.6 0.00 0.00 0.00 54 1014.5
20260905152020 35 67 0.0 1.6 0.00 0.00 0.00 53 1014.6
20260905151515 36 336 3.2 3.2 0.00 0.00 0.00 53 1014.5
20260905151010 36 60 0.0 1.6 0.00 0.00 0.00 52 1014.5
20260905150506 35 66 0.0 0.0 0.00 0.00 0.00 56 1014.6
20260905150003 35 56 0.0 0.0 0.00 0.00 0.00 55 1014.5
20260905145457 35 66 0.0 0.0 0.00 0.00 0.00 56 1014.6
20260905144956 34 64 0.0 0.0 0.00 0.00 0.00 58 1014.5
20260905144452 33 71 0.0 1.6 0.00 0.00 0.00 62 1014.5
20260905143950 32 64 0.0 0.0 0.00 0.00 0.00 62 1014.4
20260905143449 32 69 0.0 1.6 0.00 0.00 0.00 63 1014.6
20260905142945 32 48 0.0 0.0 0.00 0.00 0.00 61 1014.6
20260905142443 32 54 0.0 1.6 0.00 0.00 0.00 62 1014.6
20260905141939 32 50 3.2 3.2 0.00 0.00 0.00 62 1014.5
20260905141434 32 69 0.0 0.0 0.00 0.00 0.00 63 1014.5
20260905140930 32 60 0.0 0.0 0.00 0.00 0.00 67 1014.4
20260905140425 31 58 0.0 0.0 0.00 0.00 0.00 68 1014.6
20260905135924 31 77 1.6 1.6 0.00 0.00 0.00 71 1014.5
20260905135420 30 353 1.6 3.2 0.00 0.00 0.00 72 1014.2
20260905134915 30 42 0.0 1.6 0.00 0.00 0.00 73 1014.4
20260905134414 30 33 1.6 1.6 0.00 0.00 0.00 72 1014.3
20260905133909 30 49 0.0 1.6 0.00 0.00 0.00 73 1014.2
20260905133403 29 48 0.0 0.0 0.00 0.00 0.00 76 1014.3
20260905132903 28 42 1.6 1.6 0.00 0.00 0.00 77 1014.3
20260905132358 28 48 0.0 1.6 0.00 0.00 0.00 78 1014.5
20260905131858 28 52 0.0 0.0 0.00 0.00 0.00 81 1014.3
20260905131354 27 42 0.0 1.6 0.00 0.00 0.00 82 1014.1
20260905130849 27 45 0.0 0.0 0.00 0.00 0.00 84 1014.3
20260905130347 27 50 0.0 0.0 0.00 0.00 0.00 89 1014.1
20260905125843 26 49 0.0 0.0 0.00 0.00 0.00 94 1014.0
20260905125338 26 49 0.0 0.0 0.00 0.00 0.00 99 1014.1
20260905124834 25 49 0.0 0.0 0.00 0.00 0.00 99 1014.1
20260905124330 24 49 0.0 0.0 0.00 0.00 0.00 99 1014.0
20260905123830 24 49 0.0 0.0 0.00 0.00 0.00 99 1013.7
20260905123327 23 50 0.0 0.0 0.00 0.00 0.00 99 1013.8
20260905122827 23 49 0.0 0.0 0.00 0.00 0.00 99 1013.7
20260905122326 23 50 0.0 0.0 0.00 0.00 0.00 99 1013.7
20260905121821 23 50 0.0 0.0 0.00 0.00 0.00 99 1013.9
20260905121318 23 50 0.0 0.0 0.00 0.00 0.00 99 1013.7
20260905120816 23 50 0.0 0.0 0.00 0.00 0.00 99 1013.7
20260905120312 23 50 0.0 0.0 0.00 0.00 0.00 99 1013.7
20260905115812 23 50 0.0 0.0 0.00 0.00 0.00 99 1013.6
20260905115311 23 50 0.0 0.0 0.00 0.00 0.00 99 1013.7
20260905114811 22 50 0.0 0.0 0.00 0.00 0.00 99 1013.7
20260905114310 22 50 0.0 0.0 0.00 0.00 0.00 99 1013.6
20260905113810 22 50 0.0 0.0 0.00 0.00 0.00 99 1013.7
20260905113305 22 50 0.0 0.0 0.00 0.00 0.00 99 1013.6
20260905112801 22 50 0.0 0.0 0.00 0.00 0.00 99 1013.7
20260905112255 22 50 0.0 0.0 0.00 0.00 0.00 98 1013.7
20260905111751 22 50 0.0 0.0 0.00 0.00 0.00 98 1013.5
20260905111251 23 50 0.0 0.0 0.00 0.00 0.00 98 1013.6
20260905110750 23 50 0.0 0.0 0.00 0.00 0.00 98 1013.7
20260905110244 23 50 0.0 0.0 0.00 0.00 0.00 98 1013.5
20260905105740 23 50 0.0 0.0 0.00 0.00 0.00 98 1013.6
20260905105239 23 50 0.0 0.0 0.00 0.00 0.00 98 1013.2
20260905104734 23 50 0.0 0.0 0.00 0.00 0.00 98 1013.2
20260905104230 23 50 0.0 0.0 0.00 0.00 0.00 98 1013.4
20260905103724 23 50 0.0 0.0 0.00 0.00 0.00 98 1013.6
20260905103220 23 50 0.0 0.0 0.00 0.00 0.00 98 1013.4
20260905102716 23 50 0.0 0.0 0.00 0.00 0.00 98 1013.6
20260905102212 23 50 0.0 0.0 0.00 0.00 0.00 98 1013.4
20260905101711 23 50 0.0 0.0 0.00 0.00 0.00 98 1013.4
20260905101210 23 50 0.0 0.0 0.00 0.00 0.00 98 1013.5
20260905100706 23 50 0.0 0.0 0.00 0.00 0.00 98 1013.6
20260905100201 23 50 0.0 0.0 0.00 0.00 0.00 98 1013.4
20260905095700 23 50 0.0 0.0 0.00 0.00 0.00 98 1013.4
20260905095155 23 50 0.0 0.0 0.00 0.00 0.00 98 1013.3
20260905094650 23 50 0.0 0.0 0.00 0.00 0.00 98 1013.1
20260905094149 23 50 0.0 0.0 0.00 0.00 0.00 98 1013.2
20260905093644 23 50 0.0 0.0 0.00 0.00 0.00 98 1013.2
20260905093140 23 50 0.0 0.0 0.00 0.00 0.00 98 1013.2
20260905092640 23 50 0.0 0.0 0.00 0.00 0.00 98 1013.3
20260905092136 23 50 0.0 0.0 0.00 0.00 0.00 98 1013.3
20260905091636 23 50 0.0 0.0 0.00 0.00 0.00 98 1013.1
20260905091135 23 50 0.0 0.0 0.00 0.00 0.00 98 1013.4
20260905090630 23 50 0.0 0.0 0.00 0.00 0.00 98 1013.4
20260905090126 23 50 0.0 0.0 0.00 0.00 0.00 98 1013.3
20260905085624 23 50 0.0 0.0 0.00 0.00 0.00 98 1013.2
20260905085120 23 50 0.0 0.0 0.00 0.00 0.00 97 1013.3
20260905084619 23 50 0.0 0.0 0.00 0.00 0.00 97 1013.4
20260905084115 23 50 0.0 0.0 0.00 0.00 0.00 97 1013.1
20260905083615 23 50 0.0 0.0 0.00 0.00 0.00 97 1013.4
20260905083111 23 50 0.0 0.0 0.00 0.00 0.00 97 1013.3
20260905082606 23 50 0.0 0.0 0.00 0.00 0.00 97 1013.3
20260905082102 23 50 0.0 0.0 0.00 0.00 0.00 97 1013.2
20260905081601 23 50 0.0 0.0 0.00 0.00 0.00 97 1013.2
20260905081057 23 50 0.0 0.0 0.00 0.00 0.00 97 1013.2
20260905080556 23 50 0.0 0.0 0.00 0.00 0.00 97 1013.0
20260905080052 23 50 0.0 0.0 0.00 0.00 0.00 97 1013.0
20260905075551 23 50 0.0 0.0 0.00 0.00 0.00 97 1013.2
20260905075050 23 50 0.0 0.0 0.00 0.00 0.00 97 1013.4
20260905074550 23 50 0.0 0.0 0.00 0.00 0.00 97 1013.2
20260905074045 23 50 0.0 0.0 0.00 0.00 0.00 97 1013.1
20260905073541 23 50 0.0 0.0 0.00 0.00 0.00 96 1013.3
20260905073036 23 50 0.0 0.0 0.00 0.00 0.00 96 1013.2
20260905072536 23 50 0.0 0.0 0.00 0.00 0.00 96 1013.1
20260905072032 23 50 0.0 0.0 0.00 0.00 0.00 96 1013.1
20260905071528 23 50 0.0 0.0 0.00 0.00 0.00 96 1013.2
20260905071028 23 50 0.0 0.0 0.00 0.00 0.00 95 1013.5
20260905070523 23 50 0.0 0.0 0.00 0.00 0.00 95 1013.4
20260905070019 23 50 0.0 0.0 0.00 0.00 0.00 95 1013.2
20260905065516 24 50 0.0 0.0 0.00 0.00 0.00 95 1013.3
20260905065012 24 50 0.0 0.0 0.00 0.00 0.00 95 1013.3
20260905064508 24 50 0.0 0.0 0.00 0.00 0.00 95 1013.5
20260905064003 24 50 0.0 0.0 0.00 0.00 0.00 95 1013.3
20260905063502 24 50 0.0 0.0 0.00 0.00 0.00 94 1013.5
20260905062959 24 50 0.0 0.0 0.00 0.00 0.00 94 1013.4
20260905062457 25 50 0.0 0.0 0.00 0.00 0.00 94 1013.4
20260905061953 25 50 0.0 0.0 0.00 0.00 0.00 94 1013.4
20260905061448 24 50 0.0 0.0 0.00 0.00 0.00 95 1013.6
20260905060947 24 50 0.0 0.0 0.00 0.00 0.00 94 1013.4
20260905060443 24 50 0.0 0.0 0.00 0.00 0.00 94 1013.6
20260905055943 24 50 0.0 0.0 0.00 0.00 0.00 93 1013.6
20260905055443 25 50 0.0 0.0 0.00 0.00 0.00 93 1013.6
20260905054943 25 50 0.0 0.0 0.00 0.00 0.00 93 1013.6
20260905054439 25 50 0.0 0.0 0.00 0.00 0.00 93 1013.5
20260905053939 25 50 0.0 0.0 0.00 0.00 0.00 93 1013.7
20260905053434 25 50 0.0 0.0 0.00 0.00 0.00 93 1013.6
20260905052929 25 50 0.0 0.0 0.00 0.00 0.00 93 1013.6
20260905052428 25 50 0.0 0.0 0.00 0.00 0.00 92 1013.4
20260905051928 25 49 0.0 0.0 0.00 0.00 0.00 91 1013.5
20260905051424 25 49 0.0 0.0 0.00 0.00 0.00 91 1013.5
20260905050922 25 49 0.0 0.0 0.00 0.00 0.00 91 1013.5
20260905050417 25 49 0.0 0.0 0.00 0.00 0.00 91 1013.4
20260905045913 25 49 0.0 0.0 0.00 0.00 0.00 91 1013.5
20260905045408 25 49 0.0 0.0 0.00 0.00 0.00 91 1013.5
20260905044903 25 49 0.0 0.0 0.00 0.00 0.00 91 1013.5
20260905044358 25 49 0.0 0.0 0.00 0.00 0.00 91 1013.6
20260905043856 25 49 0.0 0.0 0.00 0.00 0.00 91 1013.7
20260905043352 25 49 0.0 0.0 0.00 0.00 0.00 91 1013.8
20260905042846 25 49 0.0 0.0 0.00 0.00 0.00 90 1013.8
20260905042346 25 49 0.0 0.0 0.00 0.00 0.00 90 1013.8
20260905041841 25 49 0.0 0.0 0.00 0.00 0.00 90 1013.8
20260905041338 25 49 0.0 0.0 0.00 0.00 0.00 90 1013.9
20260905040838 25 49 0.0 0.0 0.00 0.00 0.00 90 1013.8
20260905040337 25 49 0.0 0.0 0.00 0.00 0.00 89 1013.7
20260905035836 25 49 0.0 0.0 0.00 0.00 0.00 88 1013.8
20260905035332 26 49 0.0 0.0 0.00 0.00 0.00 88 1013.8
20260905034828 26 49 0.0 0.0 0.00 0.00 0.00 88 1013.7
20260905034324 26 49 0.0 0.0 0.00 0.00 0.00 88 1013.7
20260905033822 26 49 0.0 0.0 0.00 0.00 0.00 87 1013.6
20260905033318 26 49 0.0 0.0 0.00 0.00 0.00 88 1013.8
20260905032817 26 49 0.0 0.0 0.00 0.00 0.00 88 1013.8
20260905032313 26 49 0.0 0.0 0.00 0.00 0.00 88 1013.9
20260905031808 26 49 0.0 0.0 0.00 0.00 0.00 88 1013.9
20260905031304 26 49 0.0 0.0 0.00 0.00 0.00 87 1013.9
20260905030758 26 49 0.0 0.0 0.00 0.00 0.00 87 1014.1
20260905030254 26 49 0.0 0.0 0.00 0.00 0.00 87 1013.9
20260905025748 26 49 0.0 0.0 0.00 0.00 0.00 87 1013.8
20260905025244 26 49 0.0 0.0 0.00 0.00 0.00 87 1014.0
20260905024739 26 49 0.0 0.0 0.00 0.00 0.00 86 1013.9
20260905024235 26 49 0.0 0.0 0.00 0.00 0.00 86 1013.8
20260905023735 26 49 0.0 0.0 0.00 0.00 0.00 85 1013.8
20260905023230 26 49 0.0 0.0 0.00 0.00 0.00 84 1013.9
20260905022729 26 49 0.0 0.0 0.00 0.00 0.00 84 1013.6
20260905022225 27 49 0.0 0.0 0.00 0.00 0.00 84 1013.7
20260905021719 27 49 0.0 0.0 0.00 0.00 0.00 84 1013.6
20260905021214 27 49 0.0 0.0 0.00 0.00 0.00 84 1013.6
20260905020709 27 49 0.0 0.0 0.00 0.00 0.00 84 1013.5
20260905020204 27 49 0.0 0.0 0.00 0.00 0.00 84 1013.6
20260905015703 27 49 0.0 0.0 0.00 0.00 0.00 83 1013.5
20260905015202 27 49 0.0 0.0 0.00 0.00 0.00 82 1013.6
20260905014701 27 49 0.0 0.0 0.00 0.00 0.00 81 1013.6
20260905014156 27 49 0.0 0.0 0.00 0.00 0.00 81 1013.4
20260905013653 27 49 0.0 0.0 0.00 0.00 0.00 81 1013.5
20260905013148 27 49 0.0 0.0 0.00 0.00 0.00 80 1013.5
20260905012644 28 49 0.0 0.0 0.00 0.00 0.00 79 1013.3
20260905012140 28 49 0.0 0.0 0.00 0.00 0.00 79 1013.4
20260905011636 28 49 0.0 0.0 0.00 0.00 0.00 78 1013.3
20260905011131 28 49 0.0 0.0 0.00 0.00 0.00 77 1013.3
20260905010626 28 49 0.0 0.0 0.00 0.00 0.00 76 1013.2
20260905010122 28 49 0.0 0.0 0.00 0.00 0.00 76 1013.2
20260905005618 29 49 0.0 0.0 0.00 0.00 0.00 74 1013.2
20260905005114 29 49 0.0 0.0 0.00 0.00 0.00 73 1013.0
20260905004613 29 49 0.0 0.0 0.00 0.00 0.00 72 1013.1
20260905004108 30 49 0.0 0.0 0.00 0.00 0.00 72 1013.2
20260905003604 30 49 0.0 0.0 0.00 0.00 0.00 71 1013.1
20260905003100 30 49 0.0 0.0 0.00 0.00 0.00 70 1013.0
20260905002555 30 49 0.0 0.0 0.00 0.00 0.00 69 1012.9
20260905002050 30 49 0.0 0.0 0.00 0.00 0.00 67 1013.0
20260905001545 30 49 0.0 0.0 0.00 0.00 0.00 67 1012.9
20260905001044 31 49 0.0 0.0 0.00 0.00 0.00 65 1013.0
20260905000539 31 49 0.0 0.0 0.00 0.00 0.00 64 1012.8
20260905000036 31 49 0.0 0.0 0.00 0.00 0.00 63 1012.8
20260904235530 32 49 0.0 0.0 0.00 0.00 0.00 62 1012.7
20260904235030 32 49 0.0 0.0 0.00 0.00 0.00 61 1012.8
20260904234530 32 49 0.0 0.0 0.00 0.00 0.00 59 1013.0
20260904234026 33 49 0.0 0.0 0.00 0.00 0.00 56 1012.9
20260904233521 33 49 0.0 0.0 0.00 0.00 0.00 55 1012.9
20260904233017 34 49 0.0 0.0 0.00 0.00 0.00 53 1012.9
20260904232514 35 49 0.0 0.0 0.00 0.00 0.00 51 1012.8
20260904232010 35 49 0.0 0.0 0.00 0.00 0.00 50 1012.9
20260904231506 36 49 0.0 0.0 0.00 0.00 0.00 48 1012.7
20260904231000 36 49 0.0 0.0 0.00 0.00 0.00 47 1012.8
20260904230459 36 49 0.0 0.0 0.00 0.00 0.00 47 1012.7
20260904225954 37 49 0.0 0.0 0.00 0.00 0.00 44 1012.9
20260904225452 37 49 0.0 0.0 0.00 0.00 0.00 43 1012.9
20260904224946 37 49 0.0 0.0 0.00 0.00 0.00 47 1012.8
20260904224442 37 49 0.0 0.0 0.00 0.00 0.00 46 1012.7
20260904223942 37 49 0.0 0.0 0.00 0.00 0.00 45 1012.6
20260904223441 37 47 0.0 1.6 0.00 0.00 0.00 44 1012.6
20260904222937 38 48 0.0 0.0 0.00 0.00 0.00 44 1012.6
20260904222432 38 48 0.0 0.0 0.00 0.00 0.00 43 1012.7
20260904221932 38 57 0.0 0.0 0.00 0.00 0.00 43 1012.7
20260904221426 38 57 0.0 0.0 0.00 0.00 0.00 43 1012.6
20260904220922 38 57 0.0 0.0 0.00 0.00 0.00 42 1012.6
20260904220421 38 54 0.0 0.0 0.00 0.00 0.00 44 1012.7
20260904215917 37 49 0.0 0.0 0.00 0.00 0.00 44 1012.6
20260904215412 37 56 0.0 0.0 0.00 0.00 0.00 48 1012.9
20260904214908 37 64 0.0 0.0 0.00 0.00 0.00 47 1012.7
20260904214403 37 58 0.0 0.0 0.00 0.00 0.00 46 1012.7
20260904213901 37 61 0.0 0.0 0.00 0.00 0.00 47 1012.9
20260904213357 37 43 0.0 1.6 0.00 0.00 0.00 43 1012.9
20260904212853 37 23 1.6 1.6 0.00 0.00 0.00 42 1013.0
20260904212352 37 56 0.0 0.0 0.00 0.00 0.00 47 1013.1
20260904211848 36 52 0.0 0.0 0.00 0.00 0.00 47 1013.0
20260904211344 36 267 3.2 4.8 0.00 0.00 0.00 46 1013.1
20260904210838 36 46 0.0 0.0 0.00 0.00 0.00 52 1013.2
20260904210338 35 33 1.6 1.6 0.00 0.00 0.00 52 1013.2
20260904205834 33 16 0.0 1.6 0.00 0.00 0.00 59 1013.5
20260904205330 32 144 3.2 3.2 0.00 0.00 0.00 60 1013.5
20260904204826 30 7 1.6 3.2 0.00 0.00 0.00 64 1013.6
20260904204322 30 337 3.2 3.2 0.00 0.00 0.00 65 1014.0
20260904203818 30 45 0.0 1.6 0.00 0.00 0.00 72 1014.0
20260904203315 30 45 0.0 1.6 0.00 0.00 0.00 70 1014.1
20260904202815 30 40 0.0 1.6 0.00 0.00 0.00 70 1014.0
20260904202311 30 62 0.0 0.0 0.00 0.00 0.00 69 1014.1
20260904201807 30 52 1.6 1.6 0.00 0.00 0.00 64 1014.4
20260904201307 31 355 3.2 4.8 0.00 0.00 0.00 59 1014.3
20260904200802 31 76 0.0 1.6 0.00 0.00 0.00 61 1014.3
20260904200255 32 94 3.2 3.2 0.00 0.00 0.00 55 1014.4
20260904195755 33 252 3.2 3.2 0.00 0.00 0.00 55 1014.4
20260904195254 34 320 8.0 9.7 0.00 0.00 0.00 52 1014.5
20260904194749 35 52 0.0 0.0 0.00 0.00 0.00 54 1014.2
20260904194248 35 52 0.0 0.0 0.00 0.00 0.00 55 1014.4
20260904193743 35 52 0.0 0.0 0.00 0.00 0.00 52 1014.3
20260904193239 35 52 0.0 0.0 0.00 0.00 0.00 54 1014.5
20260904192734 36 54 0.0 0.0 0.00 0.00 0.00 51 1014.4
20260904192229 36 53 0.0 0.0 0.00 0.00 0.00 47 1014.7
20260904191726 37 48 0.0 0.0 0.00 0.00 0.00 46 1014.4
20260904191222 38 30 1.6 1.6 0.00 0.00 0.00 43 1014.7
20260904190718 38 60 0.0 0.0 0.00 0.00 0.00 45 1014.6
20260904190214 38 112 4.8 4.8 0.00 0.00 0.00 40 1014.7
20260904185711 38 50 0.0 0.0 0.00 0.00 0.00 45 1014.8
20260904185211 38 76 1.6 1.6 0.00 0.00 0.00 45 1015.0
20260904184709 37 62 0.0 1.6 0.00 0.00 0.00 43 1014.8
20260904184206 37 47 0.0 1.6 0.00 0.00 0.00 45 1015.1
20260904183701 38 35 0.0 0.0 0.00 0.00 0.00 42 1015.1
20260904183201 38 52 0.0 0.0 0.00 0.00 0.00 44 1015.0
20260904182656 38 66 1.6 1.6 0.00 0.00 0.00 45 1015.1
20260904182151 38 115 0.0 1.6 0.00 0.00 0.00 44 1015.3
20260904181647 37 72 0.0 1.6 0.00 0.00 0.00 46 1015.2
20260904181146 37 59 0.0 0.0 0.00 0.00 0.00 46 1015.2
20260904180642 37 42 0.0 1.6 0.00 0.00 0.00 45 1015.2
20260904180138 37 189 3.2 3.2 0.00 0.00 0.00 44 1015.2
20260904175637 37 20 3.2 3.2 0.00 0.00 0.00 46 1015.3